Location: Little Maitland River
(43.8022°N, 81.1549°W)
Time: 21:57:44
(UTC+00:00)

Meteor 2-2 Rocket - Pass Details

Date: 09 December 2025
Orbit: 852 x 927 km, 81.3° (Epoch: 21 January)

Event Time Altitude Azimuth Distance (km) Brightness Sun altitude
Rises 00:22:45 0° 191° (SSW) 3,438 7.6 -27.2°
Reaches altitude 10° 00:25:11 10° 193° (SSW) 2,497 6.8 -27.6°
Maximum altitude 00:30:51 80° 280° (W) 874 4.2 -28.7°
Enters shadow 00:31:25 71° 339° (NNW) 905 4.2 -28.8°
